Find Kosmos-1523

NORAD ID: 14612 Int'l Des: 1984-001 Owner: GUKOS Country: SU operational
LEOCIRCULAR

Live Position

Loading 3D Globe...

About Kosmos-1523

Description loading...

Upcoming Passes

Passes for default location (London). Set your location on the main map for personalized predictions.

Altitude History

Loading altitude history...

Two-Line Element Set

1 14612U 84001B 26104.33876726 -.00000023 00000-0 -36928-4 0 9991
2 14612 74.0053 59.1857 0042111 309.4754 204.4087 12.58656596942251
Epoch: Apr 14, 2026 • Age: 8 hours

Current Status

Altitude 1438.8 km
Velocity 7.15 km/s
Sub-Earth Point -53.41°S, 175.48°E
Launch Date Jan 5, 1984
Age 42.2 years
Type other

Technical Details

Classification Payload
Mass 60.00 kg
Dry Mass 60.00 kg
Total Mass 60.00 kg
Length 0.80 m
Diameter 0.80 m
Span 0.80 m
Shape Poly
Manufacturer NPOPM
Bus Type Strela-1 11F625
Phase Status In Orbit
Owner/State GUKOS/SU

Most Searched